星链-31374 (STARLINK-31374 )

导读

STARLINK-31374是美国(US)SpaceX星链项目卫星,于2024年4月5日发射,属于星链星座扩容卫星,旨在完善全球卫星互联网覆盖。星链计划通过部署近地轨道卫星群,提供全球高速互联网服务,该卫星延续了星链批量发射、组网运营的特点,进一步拓展了星链系统的服务能力与覆盖范围。

基本信息
目录编号:
59404
目录名称:
STARLINK-31374
国际标识:
2024-064G
轨道中心:
EARTH
卫星名称:
星链-31374
卫星全名:
星链-31374 (STARLINK-31374 )
卫星状态:
在轨 (已飞行804 天)
发射日期:
2024-04-05 UTC
国别 :
美国 (US)
星等 :
--
轨道信息
数据来源 国际轨道数据
星历时间: 2026-06-18T07:01:11+0800
6小时前
查看轨道信息
半长轴: 6861.213km
偏心率: 0.0001427
轨道倾角: 43.004°
近地点辐角 277.948°
升交点赤经 158.845°
平近点角 82.121°
近地点: 482.096km
远地点: 484.056km
周期: 94.267分钟
每日圈数: 15.275713
详细信息
固有亮度:
5
最大亮度:
0.3
卫星平台:
Starlink v2.0 mini
覆盖范围:
全球
运营商:
太空探索技术公司
运营商所在国:
美国
制造商(研发单位):
太空探索技术公司
制造商所在国:
美国
使用方式:
暂无
卫星简介
星链(Starlink)计划是由太空探索技术公司(SpaceX)提出的一个巨型低轨卫星互联网星座项目,计划在2019年至2024年间在太空搭建由约1.2万颗卫星组成的“星链”网络,其中1584颗将部署在地球上空550千米处的近地轨道,并从2020年开始工作。该卫星仍在工作。
2D轨道图
3D轨道图
轨道高度分析图
轨道倾角分析图
轨道综合分析图
查看轨道综合分析图